This is the latest recevied weather packets stored in our database for station/object PA2JOK. If no packets are shown the sender has not sent any weather packets the latest 10 day(s).
| Time | Temp. | Humidity | Pressure | Rain* | Wind** | Luminosity | Snow |
|---|---|---|---|---|---|---|---|
| 1777821484 | 16.11° C | 85% | 1009.4 hPa | 0.76 mm | - | - | - |
| 1777820582 | 16.11° C | 84% | 1009.4 hPa | 0.51 mm | - | - | - |
| 1777819683 | 16.11° C | 82% | 1009.3 hPa | 0.25 mm | - | - | - |
| 1777818788 | 16.11° C | 82% | 1009.3 hPa | 0 mm | - | - | - |
| 1777817883 | 16.11° C | 83% | 1009.3 hPa | 0 mm | - | - | - |
| 1777816983 | 15.56° C | 85% | 1009.4 hPa | 0 mm | - | - | - |
| 1777816083 | 15.56° C | 87% | 1009.5 hPa | 0 mm | - | - | - |
| 1777815183 | 15.56° C | 88% | 1009.6 hPa | 0.25 mm | - | - | - |
| 1777814283 | 15.56° C | 88% | 1009.8 hPa | 0.51 mm | - | - | - |
| 1777813383 | 15.56° C | 88% | 1009.7 hPa | 0.51 mm | - | - | - |
| 1777812483 | 15.56° C | 88% | 1009.8 hPa | 0.76 mm | - | - | - |
| 1777811583 | 15.56° C | 87% | 1009.7 hPa | 1.27 mm | - | - | - |
| 1777810683 | 15.56° C | 87% | 1009.9 hPa | 1.52 mm | - | - | - |
| 1777809783 | 15° C | 86% | 1009.9 hPa | 1.78 mm | - | - | - |
| 1777808883 | 15° C | 86% | 1010 hPa | 1.78 mm | - | - | - |
| 1777807983 | 15.56° C | 86% | 1010 hPa | 1.52 mm | - | - | - |
| 1777807083 | 15.56° C | 86% | 1010.1 hPa | 0.76 mm | - | - | - |
| 1777806182 | 15.56° C | 85% | 1009.9 hPa | 0.51 mm | - | - | - |
| 1777805283 | 16.11° C | 85% | 1009.9 hPa | 0.25 mm | - | - | - |
| 1777804382 | 16.11° C | 83% | 1009.9 hPa | 0 mm | - | - | - |
| 1777803483 | 16.11° C | 82% | 1009.9 hPa | 0 mm | - | - | - |
| 1777802583 | 16.11° C | 81% | 1009.8 hPa | 0 mm | - | - | - |
| 1777801683 | 16.67° C | 79% | 1009.9 hPa | 0 mm | - | - | - |
| 1777800783 | 17.22° C | 77% | 1009.8 hPa | 0 mm | - | - | - |
| 1777799882 | 17.22° C | 77% | 1009.7 hPa | 0 mm | - | - | - |
* Rain latest hour (hover to see other rain measurements)
** Current wind speed in m/s (hover to see current wind gust speed)